RYR61LK LEPA-LEZL

Flight info

Callsign RYR61LK
Flight time 1h 15m
Altitude 35000
Route EPAMA N733 VLC M985 YES N747 BLN
Aircraft B38M/M-SADE3FGILRWY/SB1

Departure

Time 2026-04-23 17:44
Airport Palma de Mallorca Airport (LEPA)

Arrival

Time 2026-04-23 18:59
Airport Seville Airport (LEZL)
Time Latitude Longitude Altitude Speed Heading
2026-04-23 17:01 39.55159 2.73012 41 ft 0 kts 194°
2026-04-23 17:33 39.55175 2.73017 39 ft 4 kts 194°
2026-04-23 17:34 39.55197 2.73025 36 ft 4 kts 191°
2026-04-23 17:34 39.55217 2.73021 37 ft 4 kts 125°
2026-04-23 17:34 39.55214 2.72964 38 ft 2 kts 59°
2026-04-23 17:35 39.55202 2.72938 39 ft 2 kts 59°
2026-04-23 17:35 39.55202 2.72937 40 ft 0 kts 59°
2026-04-23 17:38 39.55212 2.72958 38 ft 7 kts 59°
2026-04-23 17:38 39.55258 2.73056 41 ft 17 kts 57°
2026-04-23 17:38 39.55329 2.73203 41 ft 20 kts 58°
2026-04-23 17:39 39.55404 2.73362 41 ft 22 kts 59°
2026-04-23 17:39 39.55485 2.73532 41 ft 18 kts 58°
2026-04-23 17:39 39.55461 2.73628 41 ft 13 kts 149°
2026-04-23 17:39 39.55375 2.73695 41 ft 15 kts 148°
2026-04-23 17:40 39.55278 2.73772 41 ft 17 kts 148°
2026-04-23 17:40 39.55170 2.73858 41 ft 19 kts 149°
2026-04-23 17:40 39.55051 2.73950 41 ft 21 kts 149°
2026-04-23 17:40 39.54922 2.74051 39 ft 22 kts 148°
2026-04-23 17:41 39.54791 2.74115 41 ft 19 kts 207°
2026-04-23 17:41 39.54637 2.73808 40 ft 22 kts 239°
2026-04-23 17:41 39.54554 2.73632 41 ft 24 kts 238°
2026-04-23 17:42 39.54368 2.73240 41 ft 20 kts 238°
2026-04-23 17:42 39.54305 2.73166 41 ft 11 kts 167°
2026-04-23 17:42 39.54268 2.73252 41 ft 13 kts 93°
2026-04-23 17:43 39.54268 2.73372 41 ft 14 kts 92°
2026-04-23 17:43 39.54262 2.73455 41 ft 3 kts 59°
2026-04-23 17:43 39.54278 2.73490 41 ft 19 kts 59°
2026-04-23 17:44 39.54482 2.73925 41 ft 92 kts 58°
2026-04-23 17:44 39.54928 2.74860 39 ft 149 kts 58°
2026-04-23 17:44 39.56058 2.77194 1383 ft 153 kts 62°
2026-04-23 17:45 39.56611 2.78473 1808 ft 179 kts 62°
2026-04-23 17:45 39.57999 2.81452 3291 ft 199 kts 60°
2026-04-23 17:45 39.58723 2.82972 4206 ft 199 kts 59°
2026-04-23 17:46 39.60468 2.86037 5371 ft 229 kts 30°
2026-04-23 17:46 39.62005 2.86491 6032 ft 235 kts 352°
2026-04-23 17:46 39.63515 2.85587 6540 ft 252 kts 316°
2026-04-23 17:47 39.64389 2.83557 7036 ft 270 kts 282°
2026-04-23 17:47 39.64212 2.81145 7838 ft 274 kts 255°
2026-04-23 17:47 39.63865 2.76258 9328 ft 275 kts 272°
2026-04-23 17:48 39.63862 2.73796 10079 ft 277 kts 272°
2026-04-23 17:48 39.63842 2.71253 10593 ft 290 kts 272°
2026-04-23 17:48 39.63825 2.68562 10948 ft 306 kts 272°
2026-04-23 17:48 39.63800 2.65756 11498 ft 313 kts 271°
2026-04-23 17:49 39.63758 2.62925 12280 ft 315 kts 271°
2026-04-23 17:49 39.63708 2.60067 13061 ft 318 kts 271°
2026-04-23 17:49 39.63650 2.57184 13872 ft 321 kts 271°
2026-04-23 17:49 39.63587 2.54279 14597 ft 324 kts 271°
2026-04-23 17:50 39.63521 2.51339 15284 ft 328 kts 271°
2026-04-23 17:50 39.63385 2.45342 16671 ft 336 kts 271°
2026-04-23 17:50 39.63312 2.42336 17390 ft 340 kts 271°
2026-04-23 17:51 39.63240 2.39255 18034 ft 345 kts 271°
2026-04-23 17:51 39.63166 2.36131 18657 ft 348 kts 271°
2026-04-23 17:51 39.63011 2.29807 19790 ft 354 kts 270°
2026-04-23 17:52 39.62930 2.26603 20342 ft 357 kts 270°
2026-04-23 17:52 39.62765 2.20119 21444 ft 363 kts 270°
2026-04-23 17:52 39.62681 2.16880 21980 ft 366 kts 270°
2026-04-23 17:53 39.62505 2.10226 23078 ft 372 kts 270°
2026-04-23 17:53 39.62414 2.06860 23627 ft 375 kts 270°
2026-04-23 17:53 39.62322 2.03461 24081 ft 378 kts 270°
2026-04-23 17:54 39.62227 2.00038 24544 ft 381 kts 270°
2026-04-23 17:54 39.62131 1.96593 24994 ft 384 kts 270°
2026-04-23 17:54 39.61933 1.89674 25864 ft 389 kts 270°
2026-04-23 17:55 39.61726 1.82595 26687 ft 396 kts 270°
2026-04-23 17:55 39.61619 1.79014 27113 ft 398 kts 270°
2026-04-23 17:55 39.61511 1.75412 27524 ft 401 kts 269°
2026-04-23 17:56 39.61401 1.71784 27932 ft 404 kts 269°
2026-04-23 17:56 39.61174 1.64453 28729 ft 409 kts 269°
2026-04-23 17:56 39.61059 1.60804 29115 ft 412 kts 269°
2026-04-23 17:57 39.60940 1.57079 29498 ft 415 kts 269°
2026-04-23 17:57 39.60820 1.53332 29874 ft 417 kts 269°
2026-04-23 17:57 39.60572 1.45755 30474 ft 424 kts 269°
2026-04-23 17:58 39.60445 1.41933 30833 ft 425 kts 269°
2026-04-23 17:58 39.60297 1.38097 31171 ft 427 kts 267°
2026-04-23 17:58 39.60076 1.34256 31505 ft 428 kts 267°
2026-04-23 17:58 39.59859 1.30404 31847 ft 429 kts 267°
2026-04-23 17:59 39.59647 1.26591 32172 ft 431 kts 267°
2026-04-23 17:59 39.59431 1.22713 32558 ft 430 kts 267°
2026-04-23 17:59 39.59215 1.18852 33028 ft 428 kts 267°
2026-04-23 17:59 39.58998 1.15010 33502 ft 426 kts 267°
2026-04-23 18:00 39.58782 1.11191 33945 ft 424 kts 266°
2026-04-23 18:00 39.58565 1.07378 34311 ft 423 kts 266°
2026-04-23 18:00 39.58348 1.03579 34674 ft 422 kts 266°
2026-04-23 18:00 39.58130 0.99795 35012 ft 421 kts 266°
2026-04-23 18:01 39.57913 0.96054 35116 ft 422 kts 266°
2026-04-23 18:01 39.57472 0.88516 35093 ft 418 kts 266°
2026-04-23 18:02 39.57028 0.80980 35103 ft 419 kts 266°
2026-04-23 18:02 39.56577 0.73444 35099 ft 420 kts 266°
2026-04-23 18:03 39.56123 0.65891 35103 ft 421 kts 266°
2026-04-23 18:03 39.55661 0.58383 35107 ft 421 kts 265°
2026-04-23 18:04 39.55192 0.50828 35108 ft 421 kts 265°
2026-04-23 18:04 39.54718 0.43279 35110 ft 420 kts 265°
2026-04-23 18:05 39.54238 0.35727 35107 ft 421 kts 265°
2026-04-23 18:05 39.53757 0.28217 35118 ft 422 kts 265°
2026-04-23 18:06 39.53266 0.20648 35116 ft 422 kts 265°
2026-04-23 18:06 39.52770 0.13085 35115 ft 421 kts 265°
2026-04-23 18:07 39.52270 0.05519 35117 ft 421 kts 265°
2026-04-23 18:07 39.51768 -0.01992 35123 ft 421 kts 264°
2026-04-23 18:08 39.51340 -0.08338 35125 ft 423 kts 264°
2026-04-23 18:08 39.50739 -0.17157 35123 ft 423 kts 264°
2026-04-23 18:09 39.50217 -0.24748 35129 ft 423 kts 264°
2026-04-23 18:09 39.49694 -0.32283 35128 ft 423 kts 264°
2026-04-23 18:10 39.49162 -0.39863 35130 ft 423 kts 264°
2026-04-23 18:10 39.48311 -0.47370 35103 ft 421 kts 249°
2026-04-23 18:10 39.46931 -0.50697 35136 ft 421 kts 235°
2026-04-23 18:11 39.45222 -0.53794 35110 ft 424 kts 235°
2026-04-23 18:11 39.41732 -0.59936 35132 ft 424 kts 234°
2026-04-23 18:12 39.38204 -0.65985 35129 ft 424 kts 233°
2026-04-23 18:12 39.34639 -0.72053 35121 ft 424 kts 233°
2026-04-23 18:13 39.31067 -0.78117 35132 ft 424 kts 233°
2026-04-23 18:13 39.27523 -0.84123 35125 ft 417 kts 233°
2026-04-23 18:14 39.24017 -0.90049 35127 ft 419 kts 233°
2026-04-23 18:14 39.20489 -0.96005 35107 ft 418 kts 233°
2026-04-23 18:15 39.16947 -1.01973 35119 ft 418 kts 233°
2026-04-23 18:15 39.13405 -1.07929 35121 ft 420 kts 233°
2026-04-23 18:16 39.09867 -1.13867 35105 ft 418 kts 232°
2026-04-23 18:16 39.06343 -1.19772 35114 ft 418 kts 232°
2026-04-23 18:17 39.01013 -1.28681 35112 ft 419 kts 232°
2026-04-23 18:17 38.97458 -1.34610 35107 ft 420 kts 232°
2026-04-23 18:18 38.93926 -1.40490 35094 ft 418 kts 232°
2026-04-23 18:18 38.90367 -1.46404 35099 ft 417 kts 232°
2026-04-23 18:19 38.86807 -1.52307 35099 ft 419 kts 231°
2026-04-23 18:19 38.83238 -1.58216 35089 ft 419 kts 231°
2026-04-23 18:20 38.79660 -1.64131 35095 ft 420 kts 231°
2026-04-23 18:20 38.76076 -1.70042 35092 ft 420 kts 231°
2026-04-23 18:21 38.72514 -1.75908 35088 ft 420 kts 231°
2026-04-23 18:21 38.68925 -1.81802 35088 ft 420 kts 231°
2026-04-23 18:22 38.65335 -1.87689 35073 ft 420 kts 231°
2026-04-23 18:22 38.61765 -1.93530 35082 ft 419 kts 231°
2026-04-23 18:23 38.56398 -2.02295 35073 ft 417 kts 231°
2026-04-23 18:24 38.51028 -2.11043 35072 ft 417 kts 231°
2026-04-23 18:25 38.45677 -2.19737 35062 ft 417 kts 231°
2026-04-23 18:25 38.42093 -2.25548 35070 ft 417 kts 231°
2026-04-23 18:26 38.38506 -2.31353 35062 ft 416 kts 230°
2026-04-23 18:26 38.36831 -2.34353 35035 ft 416 kts 241°
2026-04-23 18:26 38.35835 -2.37808 35052 ft 419 kts 255°
2026-04-23 18:27 38.34572 -2.45063 35023 ft 422 kts 255°
2026-04-23 18:27 38.33371 -2.52379 35034 ft 422 kts 256°
2026-04-23 18:28 38.32194 -2.59712 35014 ft 422 kts 256°
2026-04-23 18:28 38.31019 -2.67034 35009 ft 422 kts 256°
2026-04-23 18:29 38.29845 -2.74324 35016 ft 424 kts 256°
2026-04-23 18:29 38.28656 -2.81669 34991 ft 423 kts 256°
2026-04-23 18:30 38.27464 -2.89007 34991 ft 423 kts 255°
2026-04-23 18:30 38.26267 -2.96345 34979 ft 423 kts 255°
2026-04-23 18:31 38.25074 -3.03627 34982 ft 423 kts 255°
2026-04-23 18:31 38.23868 -3.10960 34978 ft 424 kts 255°
2026-04-23 18:32 38.22656 -3.18301 34978 ft 424 kts 255°
2026-04-23 18:32 38.21437 -3.25648 34962 ft 424 kts 255°
2026-04-23 18:33 38.20224 -3.32936 34981 ft 425 kts 255°
2026-04-23 18:33 38.18997 -3.40274 34963 ft 424 kts 255°
2026-04-23 18:34 38.17765 -3.47611 34967 ft 425 kts 255°
2026-04-23 18:34 38.16525 -3.54975 34969 ft 426 kts 255°
2026-04-23 18:35 38.15255 -3.62330 34962 ft 425 kts 252°
2026-04-23 18:35 38.13705 -3.69513 34969 ft 425 kts 252°
2026-04-23 18:36 38.12170 -3.76758 34912 ft 424 kts 252°
2026-04-23 18:36 38.11402 -3.80385 34024 ft 429 kts 251°
2026-04-23 18:36 38.10620 -3.84079 32994 ft 437 kts 251°
2026-04-23 18:36 38.09827 -3.87817 32165 ft 439 kts 251°
2026-04-23 18:37 38.09035 -3.91547 31527 ft 437 kts 251°
2026-04-23 18:37 38.08254 -3.95212 30901 ft 435 kts 251°
2026-04-23 18:37 38.07463 -3.98923 30122 ft 437 kts 251°
2026-04-23 18:37 38.06662 -4.02671 29129 ft 442 kts 251°
2026-04-23 18:38 38.05859 -4.06425 28456 ft 439 kts 251°
2026-04-23 18:38 38.05063 -4.10135 27908 ft 434 kts 251°
2026-04-23 18:38 38.04274 -4.13809 27315 ft 430 kts 251°
2026-04-23 18:38 38.03490 -4.17458 26723 ft 427 kts 251°
2026-04-23 18:39 38.02709 -4.21082 26130 ft 425 kts 251°
2026-04-23 18:39 38.01931 -4.24686 25536 ft 423 kts 251°
2026-04-23 18:39 38.01166 -4.28227 24973 ft 421 kts 251°
2026-04-23 18:39 38.00393 -4.31798 24386 ft 419 kts 251°
2026-04-23 18:40 37.99621 -4.35357 23806 ft 418 kts 251°
2026-04-23 18:40 37.98850 -4.38906 23167 ft 417 kts 251°
2026-04-23 18:40 37.98082 -4.42440 22538 ft 415 kts 251°
2026-04-23 18:40 37.97318 -4.45947 21968 ft 411 kts 251°
2026-04-23 18:41 37.96558 -4.49427 21409 ft 408 kts 251°
2026-04-23 18:41 37.95803 -4.52884 20849 ft 406 kts 251°
2026-04-23 18:41 37.95052 -4.56316 20303 ft 403 kts 251°
2026-04-23 18:41 37.94314 -4.59679 19782 ft 400 kts 251°
2026-04-23 18:42 37.93570 -4.63069 19239 ft 398 kts 251°
2026-04-23 18:42 37.92830 -4.66435 18715 ft 396 kts 251°
2026-04-23 18:42 37.92092 -4.69786 18152 ft 394 kts 251°
2026-04-23 18:42 37.91358 -4.73116 17576 ft 391 kts 251°
2026-04-23 18:43 37.90629 -4.76416 17047 ft 388 kts 251°
2026-04-23 18:43 37.89904 -4.79692 16545 ft 385 kts 251°
2026-04-23 18:43 37.89184 -4.82943 16045 ft 382 kts 251°
2026-04-23 18:43 37.88469 -4.86165 15560 ft 379 kts 251°
2026-04-23 18:44 37.87768 -4.89320 15082 ft 376 kts 250°
2026-04-23 18:44 37.87062 -4.92496 14592 ft 374 kts 250°
2026-04-23 18:44 37.86357 -4.95660 14139 ft 372 kts 250°
2026-04-23 18:44 37.85657 -4.98799 13673 ft 370 kts 250°
2026-04-23 18:45 37.84958 -5.01929 13152 ft 368 kts 250°
2026-04-23 18:45 37.84264 -5.05036 12680 ft 365 kts 251°
2026-04-23 18:45 37.83574 -5.08118 12229 ft 362 kts 251°
2026-04-23 18:45 37.82890 -5.11167 11774 ft 360 kts 251°
2026-04-23 18:46 37.82208 -5.14202 11328 ft 357 kts 251°
2026-04-23 18:46 37.81543 -5.17162 11030 ft 351 kts 251°
2026-04-23 18:46 37.80883 -5.20090 10863 ft 341 kts 251°
2026-04-23 18:46 37.80243 -5.22932 10693 ft 331 kts 251°
2026-04-23 18:47 37.79621 -5.25690 10532 ft 322 kts 251°
2026-04-23 18:47 37.79208 -5.27519 10421 ft 316 kts 251°
2026-04-23 18:47 37.78959 -5.28620 10358 ft 312 kts 251°
2026-04-23 18:48 37.78371 -5.31224 10205 ft 304 kts 251°
2026-04-23 18:48 37.77798 -5.33754 10050 ft 296 kts 251°
2026-04-23 18:48 37.77234 -5.36247 9741 ft 294 kts 251°
2026-04-23 18:48 37.76494 -5.38590 9320 ft 290 kts 233°
2026-04-23 18:49 37.75126 -5.40408 8985 ft 285 kts 220°
2026-04-23 18:49 37.73672 -5.42090 8701 ft 282 kts 220°
2026-04-23 18:49 37.72226 -5.43746 8410 ft 279 kts 220°
2026-04-23 18:49 37.70789 -5.45378 8108 ft 277 kts 219°
2026-04-23 18:50 37.69840 -5.46450 7912 ft 276 kts 220°
2026-04-23 18:50 37.67936 -5.48592 7527 ft 273 kts 219°
2026-04-23 18:50 37.66522 -5.50180 7234 ft 272 kts 219°
2026-04-23 18:50 37.65133 -5.51743 6931 ft 271 kts 219°
2026-04-23 18:51 37.63735 -5.53329 6597 ft 271 kts 219°
2026-04-23 18:51 37.62339 -5.54913 6307 ft 269 kts 220°
2026-04-23 18:51 37.60952 -5.56485 5998 ft 267 kts 219°
2026-04-23 18:51 37.59574 -5.58043 5700 ft 265 kts 220°
2026-04-23 18:52 37.58211 -5.59585 5428 ft 262 kts 220°
2026-04-23 18:52 37.56860 -5.61113 5156 ft 260 kts 220°
2026-04-23 18:52 37.55513 -5.62627 4874 ft 259 kts 218°
2026-04-23 18:52 37.53958 -5.63759 4561 ft 260 kts 194°
2026-04-23 18:53 37.52217 -5.63811 4342 ft 252 kts 165°
2026-04-23 18:53 37.50704 -5.62838 4234 ft 241 kts 139°
2026-04-23 18:53 37.49460 -5.61498 4156 ft 230 kts 148°
2026-04-23 18:53 37.48058 -5.60645 4060 ft 219 kts 161°
2026-04-23 18:54 37.46613 -5.60221 3941 ft 209 kts 177°
2026-04-23 18:54 37.45160 -5.60285 3825 ft 211 kts 190°
2026-04-23 18:54 37.43829 -5.60901 3761 ft 201 kts 213°
2026-04-23 18:54 37.42819 -5.62077 3627 ft 197 kts 229°
2026-04-23 18:55 37.42091 -5.63516 3473 ft 196 kts 252°
2026-04-23 18:55 37.41890 -5.65183 3380 ft 196 kts 266°
2026-04-23 18:55 37.41863 -5.66915 3194 ft 199 kts 269°
2026-04-23 18:55 37.41860 -5.68630 3023 ft 192 kts 269°
2026-04-23 18:56 37.41858 -5.69756 2842 ft 189 kts 268°
2026-04-23 18:56 37.41852 -5.71909 2513 ft 183 kts 267°
2026-04-23 18:56 37.41847 -5.73491 2277 ft 179 kts 266°
2026-04-23 18:56 37.41842 -5.75037 2058 ft 174 kts 266°
2026-04-23 18:57 37.41836 -5.76556 1823 ft 174 kts 268°
2026-04-23 18:57 37.41831 -5.78045 1600 ft 172 kts 267°
2026-04-23 18:57 37.41826 -5.79508 1390 ft 162 kts 267°
2026-04-23 18:57 37.41822 -5.80875 1184 ft 151 kts 267°
2026-04-23 18:58 37.41819 -5.82170 983 ft 145 kts 266°
2026-04-23 18:58 37.41814 -5.83418 781 ft 143 kts 264°
2026-04-23 18:58 37.41813 -5.84646 589 ft 137 kts 266°
2026-04-23 18:58 37.41795 -5.85833 406 ft 136 kts 268°
2026-04-23 18:59 37.41800 -5.87045 231 ft 139 kts 268°
2026-04-23 18:59 37.41800 -5.88242 115 ft 129 kts 266°
2026-04-23 18:59 37.41793 -5.89126 99 ft 70 kts 271°
2026-04-23 18:59 37.41793 -5.89562 96 ft 24 kts 269°
2026-04-23 19:00 37.41806 -5.89732 96 ft 19 kts 296°
2026-04-23 19:00 37.41888 -5.89821 98 ft 7 kts 334°
2026-04-23 19:00 37.41939 -5.89849 96 ft 6 kts 338°
2026-04-23 19:00 37.41958 -5.89858 97 ft 4 kts 338°
2026-04-23 19:01 37.41992 -5.89876 97 ft 7 kts 338°
2026-04-23 19:01 37.42040 -5.89901 99 ft 8 kts 336°
2026-04-23 19:01 37.42092 -5.89930 98 ft 8 kts 340°
2026-04-23 19:01 37.42155 -5.89940 98 ft 10 kts 344°
2026-04-23 19:02 37.42194 -5.89954 99 ft 8 kts 344°
2026-04-23 19:02 37.42215 -5.89962 97 ft 0 kts 344°